Regional Weather Roundup
Issued by NWS

Home | Current Version | Previous Version | Graphics & Text | Print | Product List | Glossary Off
Versions: 1 2 3 4 5 6 7 8 9 10 11 12 13 14 15 16 17 18 19 20 21 22 23 24 25 26 27 28 29 30 31 32 33 34 35 36 37 38 39 40 41 42 43 44 45 46 47 48 49 50

000
ASUS43 KDMX 221107
RWRIA

WEATHER ROUNDUP FOR IOWA
NATIONAL WEATHER SERVICE DES MOINES IA
600 AM CDT FRI AUG 22 2014

NOTE: "FAIR" INDICATES FEW OR NO CLOUDS BELOW 12,000 FEET WITH NO
SIGNIFICANT WEATHER AND/OR OBSTRUCTIONS TO VISIBILITY.

* - THESE STATIONS ARE NOT NWS STATIONS...THUS NOT UNDER NWS
QUALITY CONTROL.  THEY ALSO DO NOT REPORT WEATHER SUCH
AS PRECIPITATION OR FOG.

IAZ001>003-012>014-020>022-031>034-043>046-221200-
   NORTHWEST IOWA

CITY           SKY/WX    TMP DP  RH WIND       PRES   REMARKS
CARROLL *      PTCLDY    70  70 100 SW3       29.88S
CHEROKEE *     PTCLDY    72  72 100 N5        29.90R
DENISON *      PTCLDY    72  72 100 SE5       29.87R FOG
LE MARS *      CLEAR     70  68  94 NW3       29.91S
ORANGE CITY *  CLEAR     73  68  83 N3        29.92S
SHELDON *      PTCLDY    64  64 100 CALM      29.92R
SIOUX CITY     PTCLDY    74  71  91 NW8       29.90R
SPENCER        PTCLDY    67  65  93 N7        29.91S
STORM LAKE *   MOCLDY    72  72 100 NW6       29.91R FOG
$$

IAZ055>058-069>071-079>083-090>094-221200-
   SOUTHWEST IOWA

CITY           SKY/WX    TMP DP  RH WIND       PRES   REMARKS
ATLANTIC *     CLOUDY    70  70 100 CALM      29.88S
AUDUBON *      CLEAR     73  72  94 CALM      29.90S
CLARINDA *     CLEAR     72  70  94 S5        29.90R
COUNCIL BLFS * MOCLDY    72  72 100 CALM      29.88R
CRESTON *      MOCLDY    72  70  94 SE9       29.91S
HARLAN  *      CLEAR     70  70 100 W3        29.93R
LAMONI         CLOUDY    73  70  90 S5        29.93R
RED OAK *      CLEAR     70  70 100 CALM      29.88R
SHENANDOAH *   CLEAR     73  72  94 SE5       29.88S
$$

IAZ047>049-059>061-072>074-084-221200-
   CENTRAL IOWA

CITY           SKY/WX    TMP DP  RH WIND       PRES   REMARKS
AMES           CLOUDY    72  71  97 S5        29.87R
ANKENY *       PTCLDY    73  70  88 CALM      29.85R
CHARITON *     CLOUDY    73  72  94 S13       29.89F
DES MOINES     CLOUDY    74  68  81 S10       29.84S
GRINNELL*      CLOUDY    73  72  94 NW3       29.89R
KNOXVILLE *    PTCLDY    73  70  88 W6        29.88R
MARSHALLTOWN   CLOUDY    74  73  97 E3        29.86S FOG
PELLA *        LGT RAIN  73  72  94 SE7       29.89R
PERRY *          N/A     70  70 100 W3        29.87R
$$

IAZ004>006-015-016-023>025-035-036-221200-
   NORTH CENTRAL IOWA

CITY           SKY/WX    TMP DP  RH WIND       PRES   REMARKS
ALGONA *       FOG       72  72 100 CALM      29.90R VSB 0
CLARION *      CLEAR     72  72 100 N6        29.88S
ESTHERVILLE    FOG       65  64  97 NW6       29.91R VSB 1/2
FORT DODGE *   CLOUDY    73  72  94 CALM      29.89R
MASON CITY     FOG       70  70 100 CALM      29.91R VSB 3/4
FOREST CITY *    N/A     70  70 100 CALM      29.89R FOG
IOWA FALLS *     N/A     72  72 100 N3        29.87F FOG
$$

IAZ007>011-017>019-026>030-037>042-050>054-066-221200-
   NORTHEAST IOWA

CITY           SKY/WX    TMP DP  RH WIND       PRES   REMARKS
CEDAR RAPIDS   CLOUDY    72  72 100 CALM      29.87R FOG
CHARLES CITY * FOG       70  70 100 CALM      29.90R VSB 1/2
CLINTON *      MOCLDY    72  72 100 E5        29.90F VSB 1
DECORAH *      FOG       70  70 100 CALM      29.89R VSB 1/2
DUBUQUE        CLOUDY    71  71 100 CALM      29.90S
MONTICELLO *   CLOUDY    70  70 100 CALM      29.88S FOG
OELWEIN *      FOG       68  68 100 CALM      29.89S VSB 1/2
WATERLOO       CLOUDY    70  69  97 E3        29.86S FOG
$$

IAZ064-065-067-068-078-221200-
   EAST CENTRAL IOWA

CITY           SKY/WX    TMP DP  RH WIND       PRES   REMARKS
DAVENPORT      MOCLDY    73  71  93 CALM      29.89S
IOWA CITY      CLOUDY    74  74 100 SE6       29.88S
MT. PLEASANT * LGT RAIN  77  75  94 CALM      29.93R
MUSCATINE *    PTCLDY    77  75  94 SW13      29.89R
QUAD CITIES    CLOUDY    76  72  87 CALM      29.88S
$$

IAZ062-063-075>077-085>089-095>099-221200-
   SOUTHEAST IOWA

CITY           SKY/WX    TMP DP  RH WIND       PRES   REMARKS
BURLINGTON     CLOUDY    77  74  90 W7        29.93R
FAIRFIELD *    CLOUDY    75  70  83 SW8G16    29.90S
FORT MADISON * CLOUDY    77  75  94 W3        29.94R
KEOKUK *       CLOUDY    77  73  88 W10       29.93R
OSKALOOSA *    LGT RAIN  73  72  94 W7        29.88S
CENTERVILLE *  MOCLDY    73  73 100 S7        29.98R
OTTUMWA        LGT RAIN  74  70  87 S14       29.85F
WASHINGTON *   PTCLDY    77  75  94 SW9       29.90S
$$

ABBREVIATIONS USED IN REMARKS
   TC - TEMPERATURES IN CELSIUS
  WCI - WIND CHILL INDEX
   HX - HEAT INDEX
  VSB - VISIBILITY
$$



USA.gov is the U.S. government's official web portal to all federal, state and local government web resources and services.